Location: Laas
(43.4693°N, 0.3073°E)
Time: 15:03:10
(UTC+00:00)

S3M - Pass Details

Date: 25 October 2020
Orbit: 950 x 1003 km, 83.0° (Epoch: 23 November)

Event Time Altitude Azimuth Distance (km) Brightness Sun altitude
Rises 18:59:21 0° 187° (S) 3,607 7.0 -22.4°
Reaches altitude 10° 19:01:50 10° 188° (S) 2,666 6.3 -22.8°
Maximum altitude 19:07:56 86° 277° (W) 961 3.9 -23.9°
Drops below altitude 10° 19:14:07 10° 7° (N) 2,701 6.3 -25.1°
Sets 19:16:38 0° 8° (N) 3,658 7.0 -25.5°
